DELTA 1 DEB, 10838

Orbit data source: Space-Track

DELTA 1 DEB, 10838 is space debris in SSO originally from a launch on Thu, 29 Jul 1976 UTC launched from the Air Force Western Test Range (AFWTR). Debris objects in space refer to the collection of defunct objects orbiting the Earth. Examples of debris include non-operational satellites, rocket bodies, and fragments generated from explosions, collisions, or faulty payload assembly.

Loading next visibility...
Identifier
10838, 1976-077CJ
Orbit
SSO
Country
Flag of USUS
Related business
Manufacturer
Unknown
Mission
Spacecraft
Bus & Motor
Unknown
Mass
Unknown
Launch date (UTC)
1976-07-29 (49 years ago)
Launch vehicle
Unknown
Launch site
Air Force Western Test Range (AFWTR)
Object type
Payload
Rocket body
Debris
Shape & HBR
Unknown shape, 0.2 m
Radar Cross Section
Small (<0.1 m²)

Expand to show TLE details & history
Last TLE update: 1 day ago

TLE from 1 day ago
0 DELTA 1 DEB
1 10838U 76077CJ  25288.53796866 -.00000022  00000-0  15070-3 0  9993
2 10838 101.5936 306.6209 0039670 264.6071 251.1864 12.40874146228730
Epoch: 2025-10-15T12:54Z
TLE epoch observation values (Epoch: 2025-10-15T12:54:40.492Z)
Latitude
24.12547°
Longitude
-86.1125°
Altitude
1,515.707 km
Speed
7.105 km/s
True Right ascension
08h 47m 28s
True Declination
24° 00' 35"
Sunlit
Object was in daylight at epoch
Visualization orbit readout
Latitude
Unknown
Longitude
Unknown
Altitude
Unknown
Speed
Unknown
Apparent Right ascension
Unknown
Apparent Declination
Unknown
Sunlit
N/A
Visualization observer readout
Local Sidereal Time
09:11:00
Azimuth
Unknown
Elevation
Unknown
Doppler factor
Unknown
Orbital elements
Apogee altitude
1,531.704 km
Perigee altitude
1,469.195 km
Semi-major axis
7,878.586 km
Eccentricity
0.00397
Inclination
101.5936°
RAAN
306.6209°
Arg. of periapsis
264.6071°
True anomaly
250.75679°
Mean anomaly
251.1864°
Eccentric anomaly
250.97153°
Mean motion
3.10364 °/min
Orbital period
115.99 mins
BSTAR
0.0001507
Loading maneuver chart data...
Computing Atmospheric mass density...
Loading historical data...
Loading historical data...
Loading historical data...
Loading historical data...
Loading historical data...
Loading historical data...
Loading historical data...

Documentation

Showing up to 5 results
|